| time (UTC) | temp F | wind direction | speed MPH | gust MPH | rain 1hr in | rain 24hr in | rain mn in | humidity % | barometer mb |
| 20260502220033 | 48 | 312 | 2.0 | 7.0 | 0.00 | 0.00 | 0.00 | 34 | 1015.5 |
| 20260502214530 | 48 | 326 | 3.0 | 5.0 | 0.00 | 0.00 | 0.00 | 35 | 1015.6 |
| 20260502213010 | 47 | 41 | 2.0 | 8.0 | 0.00 | 0.00 | 0.00 | 32 | 1015.9 |
| 20260502211523 | 46 | 324 | 7.0 | 10.0 | 0.00 | 0.00 | 0.00 | 34 | 1016.0 |
| 20260502210027 | 46 | 330 | 5.0 | 9.0 | 0.00 | 0.00 | 0.00 | 34 | 1016.0 |
| 20260502204526 | 46 | 321 | 4.0 | 12.0 | 0.00 | 0.00 | 0.00 | 36 | 1016.1 |
| 20260502203027 | 46 | 259 | 5.0 | 9.0 | 0.00 | 0.00 | 0.00 | 36 | 1016.2 |
| 20260502201525 | 45 | 293 | 5.0 | 11.0 | 0.00 | 0.00 | 0.00 | 38 | 1016.3 |
| 20260502200024 | 46 | 309 | 6.0 | 12.0 | 0.00 | 0.00 | 0.00 | 37 | 1016.4 |
| 20260502194528 | 46 | 358 | 4.0 | 11.0 | 0.00 | 0.00 | 0.00 | 40 | 1016.7 |
| 20260502193026 | 45 | 343 | 5.0 | 12.0 | 0.00 | 0.00 | 0.00 | 40 | 1016.9 |
| 20260502191528 | 46 | 305 | 5.0 | 10.0 | 0.00 | 0.00 | 0.00 | 37 | 1016.9 |
| 20260502190025 | 46 | 309 | 5.0 | 9.0 | 0.00 | 0.00 | 0.00 | 39 | 1016.9 |
| 20260502184550 | 46 | 317 | 4.0 | 10.0 | 0.00 | 0.00 | 0.00 | 38 | 1017.0 |
| 20260502183026 | 46 | 307 | 5.0 | 11.0 | 0.00 | 0.00 | 0.00 | 36 | 1017.1 |
| 20260502181530 | 45 | 283 | 4.0 | 10.0 | 0.00 | 0.00 | 0.00 | 36 | 1017.2 |
| 20260502163032 | 43 | 8 | 5.0 | 10.0 | 0.00 | 0.00 | 0.00 | 46 | 1018.0 |
| 20260502161527 | 43 | 300 | 6.0 | 11.0 | 0.00 | 0.00 | 0.00 | 42 | 1018.2 |
| 20260502151525 | 41 | 290 | 3.0 | 9.0 | 0.00 | 0.00 | 0.00 | 51 | 1018.6 |
| 20260502123006 | 31 | 148 | 0.0 | 2.0 | 0.00 | 0.00 | 0.00 | 96 | 1019.0 |
| 20260502121511 | 30 | 125 | 0.0 | 0.0 | 0.00 | 0.00 | 0.00 | 96 | 1018.9 |
| 20260502114525 | 27 | 125 | 0.0 | 0.0 | 0.00 | 0.00 | 0.00 | 96 | 1018.9 |
| 20260502113028 | 27 | 125 | 0.0 | 0.0 | 0.00 | 0.00 | 0.00 | 96 | 1018.7 |
| 20260502111526 | 26 | 125 | 0.0 | 0.0 | 0.00 | 0.00 | 0.00 | 96 | 1018.7 |
| 20260502110010 | 26 | 111 | 0.0 | 0.0 | 0.00 | 0.00 | 0.00 | 95 | 1018.6 |
| 20260502104536 | 26 | 112 | 0.0 | 0.0 | 0.00 | 0.00 | 0.00 | 95 | 1018.5 |
| 20260502103028 | 26 | 111 | 0.0 | 0.0 | 0.00 | 0.00 | 0.00 | 95 | 1018.7 |
| 20260502101528 | 26 | 111 | 0.0 | 0.0 | 0.00 | 0.00 | 0.00 | 95 | 1018.7 |
| 20260502091528 | 27 | 110 | 0.0 | 0.0 | 0.00 | 0.00 | 0.00 | 95 | 1018.3 |
| 20260502071526 | 28 | 102 | 0.0 | 1.0 | 0.00 | 0.00 | 0.00 | 93 | 1018.0 |
| 20260502070032 | 28 | 102 | 0.0 | 0.0 | 0.00 | 0.00 | 0.00 | 93 | 1018.0 |
| 20260502064528 | 28 | 102 | 0.0 | 0.0 | 0.00 | 0.00 | 0.00 | 92 | 1018.1 |
| 20260502063030 | 29 | 102 | 0.0 | 0.0 | 0.00 | 0.00 | 0.00 | 92 | 1018.2 |
| 20260502061529 | 29 | 102 | 0.0 | 2.0 | 0.00 | 0.00 | 0.00 | 92 | 1018.0 |
| 20260502060028 | 29 | 93 | 0.0 | 1.0 | 0.00 | 0.00 | 0.00 | 91 | 1018.1 |
| 20260502054525 | 30 | 132 | 0.0 | 1.0 | 0.00 | 0.00 | 0.00 | 91 | 1018.2 |
| 20260502053003 | 30 | 137 | 0.0 | 0.0 | 0.00 | 0.00 | 0.00 | 90 | 1018.1 |
| 20260502051520 | 31 | 127 | 0.0 | 0.0 | 0.00 | 0.00 | 0.00 | 89 | 1018.1 |
| 20260502050022 | 32 | 148 | 0.0 | 0.0 | 0.00 | 0.00 | 0.00 | 87 | 1018.0 |
| 20260502044527 | 34 | 190 | 0.0 | 0.0 | 0.00 | 0.00 | 0.00 | 85 | 1017.9 |
| 20260502043023 | 35 | 277 | 0.0 | 2.0 | 0.00 | 0.00 | 0.00 | 86 | 1018.0 |
| 20260502041505 | 35 | 281 | 1.0 | 2.0 | 0.00 | 0.00 | 0.00 | 85 | 1017.9 |
| 20260502040008 | 35 | 275 | 1.0 | 3.0 | 0.00 | 0.00 | 0.00 | 84 | 1017.9 |
| 20260502034528 | 36 | 274 | 0.0 | 3.0 | 0.00 | 0.00 | 0.00 | 84 | 1018.0 |
| 20260502033030 | 36 | 275 | 2.0 | 4.0 | 0.00 | 0.00 | 0.00 | 83 | 1018.1 |
| 20260502031526 | 36 | 301 | 1.0 | 4.0 | 0.00 | 0.00 | 0.00 | 82 | 1018.1 |
| 20260502030006 | 36 | 281 | 2.0 | 5.0 | 0.00 | 0.00 | 0.00 | 81 | 1018.1 |
| 20260502024528 | 37 | 281 | 3.0 | 5.0 | 0.00 | 0.00 | 0.00 | 80 | 1018.2 |
| 20260502023027 | 37 | 296 | 3.0 | 7.0 | 0.00 | 0.00 | 0.00 | 80 | 1018.2 |
| 20260502021526 | 37 | 284 | 2.0 | 5.0 | 0.00 | 0.00 | 0.00 | 79 | 1018.3 |
| 20260502020029 | 37 | 289 | 4.0 | 7.0 | 0.00 | 0.00 | 0.00 | 78 | 1018.3 |
| 20260502014519 | 37 | 309 | 3.0 | 7.0 | 0.00 | 0.00 | 0.00 | 77 | 1018.1 |
| 20260502013008 | 38 | 336 | 4.0 | 7.0 | 0.00 | 0.00 | 0.00 | 76 | 1018.1 |
| 20260502011524 | 38 | 305 | 3.0 | 6.0 | 0.00 | 0.00 | 0.00 | 76 | 1017.9 |
| 20260502010023 | 38 | 297 | 5.0 | 7.0 | 0.00 | 0.00 | 0.00 | 75 | 1017.9 |
| 20260502004526 | 38 | 300 | 4.0 | 8.0 | 0.00 | 0.00 | 0.00 | 74 | 1017.8 |
| 20260502003008 | 38 | 287 | 5.0 | 8.0 | 0.00 | 0.00 | 0.00 | 74 | 1017.8 |
| 20260502001509 | 38 | 312 | 5.0 | 10.0 | 0.00 | 0.00 | 0.00 | 74 | 1017.7 |
| 20260502000026 | 38 | 296 | 2.0 | 8.0 | 0.00 | 0.00 | 0.00 | 75 | 1017.5 |
| 20260501234526 | 38 | 314 | 5.0 | 10.0 | 0.00 | 0.00 | 0.00 | 73 | 1017.6 |
| 20260501233026 | 38 | 314 | 6.0 | 10.0 | 0.00 | 0.00 | 0.00 | 72 | 1017.6 |
| 20260501231526 | 38 | 319 | 5.0 | 11.0 | 0.00 | 0.00 | 0.00 | 72 | 1017.5 |
| 20260501230014 | 38 | 45 | 4.0 | 10.0 | 0.00 | 0.00 | 0.00 | 74 | 1017.5 |
| 20260501224530 | 39 | 325 | 7.0 | 12.0 | 0.00 | 0.00 | 0.00 | 72 | 1017.5 |
| 20260501223034 | 39 | 303 | 4.0 | 10.0 | 0.00 | 0.00 | 0.00 | 69 | 1017.4 |
| 20260501221527 | 39 | 5 | 5.0 | 11.0 | 0.00 | 0.00 | 0.00 | 69 | 1017.4 |